Time,TemperatureF,DewpointF,PressureIn,WindDirection,WindDirectionDegrees,WindSpeedMPH,WindSpeedGustMPH,Humidity,HourlyPrecipIn,Conditions,Clouds,dailyrainin,SolarRadiationWatts/m^2,SoftwareType,DateUTC
2013-03-02 00:01:00,41.0,29.0,-100.00,WSW,255,8.0,12.0,61,-99.99,,,0.03,0.000000,,2013-03-02 07:01:00,
2013-03-02 00:32:00,41.0,28.0,-100.00,WSW,254,8.0,14.0,59,-99.99,,,0.02,0.000000,,2013-03-02 07:32:00,
2013-03-02 01:32:00,40.0,25.0,-100.00,SSW,199,4.0,11.0,55,-99.99,,,0.01,0.000000,,2013-03-02 08:32:00,
2013-03-02 02:01:00,40.0,25.0,-100.00,SSW,199,4.0,11.0,55,-99.99,,,0.01,0.000000,,2013-03-02 09:01:00,
2013-03-02 02:32:00,41.0,26.0,-100.00,SSW,211,5.0,12.0,54,-99.99,,,0.01,0.000000,,2013-03-02 09:32:00,
2013-03-02 03:32:00,40.0,25.0,-100.00,WSW,250,6.0,11.0,54,-99.99,,,0.01,0.000000,,2013-03-02 10:32:00,
2013-03-02 04:32:00,41.0,25.0,-100.00,SSW,200,6.0,11.0,53,-99.99,,,0.01,0.000000,,2013-03-02 11:32:00,
2013-03-02 05:33:00,38.0,26.0,-100.00,South,182,2.0,7.0,61,-99.99,,,0.01,0.000000,,2013-03-02 12:33:00,
2013-03-02 05:43:00,38.0,26.0,-100.00,South,182,2.0,7.0,61,-99.99,,,0.01,0.000000,,2013-03-02 12:43:00,
2013-03-02 05:53:00,38.0,26.0,-100.00,South,182,2.0,7.0,61,-99.99,,,0.01,0.000000,,2013-03-02 12:53:00,
2013-03-02 06:01:00,38.0,26.0,-100.00,South,182,2.0,7.0,61,-99.99,,,0.01,0.000000,,2013-03-02 13:01:00,
2013-03-02 06:32:00,41.0,26.0,-100.00,SW,221,4.0,8.0,54,-99.99,,,0.01,0.000000,,2013-03-02 13:32:00,
2013-03-02 07:32:00,40.0,24.0,-100.00,South,175,4.0,8.0,52,-99.99,,,0.01,0.000000,,2013-03-02 14:32:00,
2013-03-02 08:32:00,42.0,27.0,-100.00,West,264,3.0,7.0,54,-99.99,,,0.01,31.000000,,2013-03-02 15:32:00,
2013-03-02 09:32:00,41.0,28.0,-100.00,SE,132,4.0,8.0,59,-99.99,,,0.00,168.000000,,2013-03-02 16:32:00,
2013-03-02 09:42:00,41.0,28.0,-100.00,SE,132,4.0,8.0,59,-99.99,,,0.00,168.000000,,2013-03-02 16:42:00,
2013-03-02 09:52:00,41.0,28.0,-100.00,SE,132,4.0,8.0,59,-99.99,,,0.00,168.000000,,2013-03-02 16:52:00,
2013-03-02 10:32:00,44.0,26.0,-100.00,SE,131,4.0,6.0,49,-99.99,,,-99.99,325.000000,,2013-03-02 17:32:00,
2013-03-02 10:42:00,44.0,26.0,-100.00,SE,131,4.0,6.0,49,-99.99,,,-99.99,325.000000,,2013-03-02 17:42:00,
2013-03-02 10:52:00,44.0,26.0,-100.00,SE,131,4.0,6.0,49,-99.99,,,-99.99,325.000000,,2013-03-02 17:52:00,
2013-03-02 11:32:00,45.0,25.0,-100.00,ESE,117,7.0,9.0,46,-99.99,,,0.00,434.000000,,2013-03-02 18:32:00,
2013-03-02 11:42:00,45.0,25.0,-100.00,ESE,117,7.0,9.0,46,-99.99,,,0.00,434.000000,,2013-03-02 18:42:00,
2013-03-02 11:52:00,45.0,25.0,-100.00,ESE,117,7.0,9.0,46,-99.99,,,0.00,434.000000,,2013-03-02 18:52:00,
2013-03-02 12:01:00,45.0,25.0,-100.00,ESE,117,7.0,9.0,46,-99.99,,,0.00,434.000000,,2013-03-02 19:01:00,
2013-03-02 12:32:00,52.0,28.0,-100.00,WNW,289,6.0,10.0,40,0.00,,,0.00,535.000000,,2013-03-02 19:32:00,
2013-03-02 12:42:00,52.0,28.0,-100.00,WNW,289,6.0,10.0,40,0.00,,,0.00,535.000000,,2013-03-02 19:42:00,
2013-03-02 12:52:00,52.0,28.0,-100.00,WNW,289,6.0,10.0,40,0.00,,,0.00,535.000000,,2013-03-02 19:52:00,
2013-03-02 13:01:00,52.0,28.0,-100.00,WNW,289,6.0,10.0,40,0.00,,,0.00,535.000000,,2013-03-02 20:01:00,
2013-03-02 13:32:00,54.0,26.0,-100.00,WNW,300,5.0,11.0,33,0.00,,,0.00,473.000000,,2013-03-02 20:32:00,
2013-03-02 13:42:00,54.0,26.0,-100.00,WNW,300,5.0,11.0,33,0.00,,,0.00,473.000000,,2013-03-02 20:42:00,
2013-03-02 13:52:00,54.0,26.0,-100.00,WNW,300,5.0,11.0,33,0.00,,,0.00,473.000000,,2013-03-02 20:52:00,
2013-03-02 14:02:00,54.0,26.0,-100.00,WNW,300,5.0,11.0,33,0.00,,,0.00,473.000000,,2013-03-02 21:02:00,
2013-03-02 14:32:00,52.0,22.0,-100.00,WNW,286,9.0,13.0,31,0.00,,,0.00,471.000000,,2013-03-02 21:32:00,
2013-03-02 14:42:00,52.0,22.0,-100.00,WNW,286,9.0,13.0,31,0.00,,,0.00,471.000000,,2013-03-02 21:42:00,
2013-03-02 14:52:00,52.0,22.0,-100.00,WNW,286,9.0,13.0,31,0.00,,,0.00,471.000000,,2013-03-02 21:52:00,
2013-03-02 15:01:00,52.0,22.0,-100.00,WNW,286,9.0,13.0,31,0.00,,,0.00,471.000000,,2013-03-02 22:01:00,
2013-03-02 15:32:00,51.0,23.0,-100.00,WNW,283,9.0,17.0,33,0.00,,,0.00,399.000000,,2013-03-02 22:32:00,
2013-03-02 15:42:00,51.0,23.0,-100.00,WNW,283,9.0,17.0,33,0.00,,,0.00,399.000000,,2013-03-02 22:42:00,
2013-03-02 15:52:00,51.0,23.0,-100.00,WNW,283,9.0,17.0,33,0.00,,,0.00,399.000000,,2013-03-02 22:52:00,
2013-03-02 16:01:00,51.0,23.0,-100.00,WNW,283,9.0,17.0,33,0.00,,,0.00,399.000000,,2013-03-02 23:01:00,
2013-03-02 16:32:00,49.0,24.0,-100.00,WNW,285,9.0,14.0,37,0.00,,,0.00,295.000000,,2013-03-02 23:32:00,
2013-03-02 16:42:00,49.0,24.0,-100.00,WNW,285,9.0,14.0,37,0.00,,,0.00,295.000000,,2013-03-02 23:42:00,
2013-03-02 16:52:00,49.0,24.0,-100.00,WNW,285,9.0,14.0,37,0.00,,,0.00,295.000000,,2013-03-02 23:52:00,
2013-03-02 17:02:00,49.0,24.0,-100.00,WNW,285,9.0,14.0,37,0.00,,,0.00,295.000000,,2013-03-03 00:02:00,
2013-03-02 17:32:00,47.0,25.0,-100.00,West,268,8.0,12.0,42,0.00,,,-99.99,158.000000,,2013-03-03 00:32:00,
2013-03-02 17:42:00,47.0,25.0,-100.00,West,268,8.0,12.0,42,0.00,,,-99.99,158.000000,,2013-03-03 00:42:00,
2013-03-02 17:52:00,47.0,25.0,-100.00,West,268,8.0,12.0,42,0.00,,,-99.99,158.000000,,2013-03-03 00:52:00,
2013-03-02 18:01:00,47.0,25.0,-100.00,West,268,8.0,12.0,42,0.00,,,-99.99,158.000000,,2013-03-03 01:01:00,
2013-03-02 18:32:00,42.0,26.0,-100.00,SSE,147,10.0,16.0,52,0.00,,,0.00,42.000000,,2013-03-03 01:32:00,
2013-03-02 18:42:00,42.0,26.0,-100.00,SSE,147,10.0,16.0,52,0.00,,,0.00,42.000000,,2013-03-03 01:42:00,
2013-03-02 18:52:00,42.0,26.0,-100.00,SSE,147,10.0,16.0,52,0.00,,,0.00,42.000000,,2013-03-03 01:52:00,
2013-03-02 19:01:00,42.0,26.0,-100.00,SSE,147,10.0,16.0,52,0.00,,,0.00,42.000000,,2013-03-03 02:01:00,
2013-03-02 19:32:00,38.0,33.0,-100.00,WSW,255,12.0,19.0,82,0.01,,,0.01,1.000000,,2013-03-03 02:32:00,
2013-03-02 19:42:00,38.0,33.0,-100.00,WSW,255,12.0,19.0,82,0.01,,,0.01,1.000000,,2013-03-03 02:42:00,
2013-03-02 19:52:00,38.0,33.0,-100.00,WSW,255,12.0,19.0,82,0.01,,,0.01,1.000000,,2013-03-03 02:52:00,
2013-03-02 20:01:00,38.0,33.0,-100.00,WSW,255,12.0,19.0,82,0.01,,,0.01,1.000000,,2013-03-03 03:01:00,
2013-03-02 20:32:00,39.0,33.0,-100.00,WSW,251,9.0,20.0,80,0.00,,,0.01,0.000000,,2013-03-03 03:32:00,
2013-03-02 20:42:00,39.0,33.0,-100.00,WSW,251,9.0,20.0,80,0.00,,,0.01,0.000000,,2013-03-03 03:42:00,
2013-03-02 20:52:00,39.0,33.0,-100.00,WSW,251,9.0,20.0,80,0.00,,,0.01,0.000000,,2013-03-03 03:52:00,
2013-03-02 21:01:00,39.0,33.0,-100.00,WSW,251,9.0,20.0,80,0.00,,,0.01,0.000000,,2013-03-03 04:01:00,
2013-03-02 21:32:00,39.0,34.0,-100.00,WSW,243,5.0,15.0,82,0.00,,,0.01,0.000000,,2013-03-03 04:32:00,
2013-03-02 21:42:00,39.0,34.0,-100.00,WSW,243,5.0,15.0,82,0.00,,,0.01,0.000000,,2013-03-03 04:42:00,
2013-03-02 21:52:00,39.0,34.0,-100.00,WSW,243,5.0,15.0,82,0.00,,,0.01,0.000000,,2013-03-03 04:52:00,
2013-03-02 22:01:00,39.0,34.0,-100.00,WSW,243,5.0,15.0,82,0.00,,,0.01,0.000000,,2013-03-03 05:01:00,
2013-03-02 22:32:00,38.0,31.0,-100.00,SE,133,6.0,14.0,76,0.00,,,0.01,0.000000,,2013-03-03 05:32:00,
2013-03-02 22:42:00,38.0,31.0,-100.00,SE,133,6.0,14.0,76,0.00,,,0.01,0.000000,,2013-03-03 05:42:00,
2013-03-02 22:52:00,38.0,31.0,-100.00,SE,133,6.0,14.0,76,0.00,,,0.01,0.000000,,2013-03-03 05:52:00,
2013-03-02 23:01:00,38.0,31.0,-100.00,SE,133,6.0,14.0,76,0.00,,,0.01,0.000000,,2013-03-03 06:01:00,
2013-03-02 23:32:00,39.0,34.0,-100.00,SE,145,4.0,10.0,82,0.00,,,-99.99,0.000000,,2013-03-03 06:32:00,
2013-03-02 23:42:00,39.0,34.0,-100.00,SE,145,4.0,10.0,82,0.00,,,-99.99,0.000000,,2013-03-03 06:42:00,
2013-03-02 23:52:00,39.0,34.0,-100.00,SE,145,4.0,10.0,82,0.00,,,-99.99,0.000000,,2013-03-03 06:52:00,